Monday, March 30, 2015
09:24 UTC
  |  Log In   |  Register Free
Airport Search:

Caruthersville Memorial Airport
(M05)

Caruthersville Memorial Airport Diagram
No Airport Diagram Available

FAA data valid effective March 05, 2015 - April 30, 2015 (unless otherwise noted).

 
 
 
 
 
 
 
 
 
 
 
 
 
 

Current Aviation Weather for Caruthersville Memorial Airport (M05)

METAR data is unavailable for M05. The nearest METAR location is at KHKA (15.6 nm SW from M05).

The most recent METAR observation for KHKA was updated at: 1407
METAR Summary (Translated METAR)
KHKA
251353Z AUTO 19007KT 10SM CLR 17/14 A3005 RMK AO2 SLP174 T01670139
(15.6 nm SW from M05)
KDYR
251355Z 20004KT 10SM CLR 17/08 A3006 RMK AO1
(16.6 nm SE from M05)
TAF
No TAF information found within 50 nm of KBYH
  Airport Weather Conditions for M05

Current weather conditions are
not available for M05


The nearest NOAA weather station
is at HKA, (15.6 nm SW from M05)
  
 Current Weather at HKA
47° F
Fair
Northwest winds at 3.5 mph
HKA NOAA Radar

Pressure: 30.11 in
Humidity: 97%
Wind: Northwest at 3.5 MPH (3 KT)
Dew Point: 46.0°F
Visibility: 10.00 mi


Airport Weather Forecast for M05

Translated METAR and TAF for KBYH
Translated METAR for KBYH (0924 UTC 30 March 2015)
found at http://aviationweather.gov/adds/metars/
 
You entered "KBYH"

Sorry, either there are no data available for your request or you did not enter any valid ICAO airport abbreviations.

See stations.txt for a list of known METAR and TAF locations. Then go back to the ADDS METARs or TAFs page and try again
 
Please try again and, if problems persist, then send mail to ncep.awc.adds@noaa.gov

Find All Airport Services Find A Hotel Find A Rental Car Find A Golf Course Find A Restaurant $100 Hamburger



FBO's on the Field
FBO Company Facility Photos Services Transportation Aviation Fuel Prices: Prices include tax
Catering Weather Repair Courtesy Rental Type 100LL JetA JetA+ MOGAS 8087
 
Add another FBO Facility Photos Catering Weather Repair Courtesy Rental Type 100LL JetA JetA+ MOGAS 8087
Services Transportation Aviation Fuel Prices: Prices include tax
There are no FBO's currently reporting fuel at M05. List your FBO now


model-print
model-print
model-print
model-print